Location: Geçitköy
(36.7327°N, 29.8010°E)
Time: 19:54:26
(UTC+00:00)

COSMO-SKYMED 1 - Pass Details

Date: 12 January 2026
Orbit: 578 x 579 km, 97.9° (Epoch: 11 February)

Event Time Altitude Azimuth Distance (km) Brightness Sun altitude
Exits shadow 15:33:49 - 29° (NNE) 2,677 5.3 -6.0°
Reaches altitude 10° 15:36:03 10° 44° (NE) 1,895 4.5 -6.5°
Maximum altitude 15:39:15 22° 95° (E) 1,289 3.7 -7.1°
Drops below altitude 10° 15:42:26 10° 147° (SSE) 1,883 4.9 -7.6°
Sets 15:44:58 0° 163° (SSE) 2,776 6.0 -8.1°
